Карточка аэропорта UHWW

Внимание!
Информация на этой странице в стадии наполнения.
Если вы не увидели какой-то информации, или заметили неточность - пожалуйста сообщите нам!
Спасибо!
Команда RU-STAFF
Название аэропортаКневичи
Название аэропорта (англ.)Knevichi
Превышение59 ft. (18 m.)
Координаты43°23.886', 132°8.9400000000001'
Высота перехода7000ft
Эшелон переходаQNH>=1013hPa: FL80; 1013hPa>QNH>=977hPa: FL90; QNH<977hPa: FL100
Коды ответчика5050-5077
Зона ОрВДХабаровск РПИ (UHHH)
Данные METARUHWW 121300Z 36002MPS 9999 NSC 19/16 Q1005 R25L/0///70 NOSIG RMK QFE753
Проноз погоды (TAF)UHWW 121100Z 1212/1312 32003MPS 9999 NSC BECMG 1213/1214 12003MPS FEW003 BKN016 BECMG 1215/1218 0300 FG BKN002 BECMG 1221/1223 6000 NSW BKN016CB FM130000 19003G08MPS 9999 BKN020CB
NOTAMshow/hide NOTAM
AWOS   TABLE

Информация о ВПП

ВПП Длина ВПП (м.) Покрытие Курс ВПП Частота ILS
07R3500Бетон71109.3
25L3500Бетон251110.1

Диспетчерские позиции

Позывной Наименование органа УВД Частота
UHWW-FM1Машина сопровождения121.700
UHWW_APPВладивосток-Подход124.7
UHWW_GNDВладивосток-Руление121.7
UHWW_R_APPВладивосток-Круг123.4
UHWW_TWRВладивосток-Старт119.5



Спутниковое изображение